Вернуться в каталог

ONEWEB-0345

АктивенСвязьPO
NORAD 49211·PAYLOAD·🇬🇧 United Kingdom

Запущен Sep 14, 2021 с Baikonur Cosmodrome

Loading…

Ближайшие Пролёты (ближайшие 24 часа)

TLE

СвежийSource: CelesTrak SupGP

Эпоха: Sep 14, 2026, 17:13 UTC

1 49211C 21083AB  26257.71785139 -.00002780  00000+0 -76207-2 0  2573
2 49211  87.8920 302.4145 0001610 100.4560   1.8184 13.13472724    13

Отслеживайте ONEWEB-0345 в реальном времени с AllMySat

Download on the App Store